Retour au catalogue

STARLINK-11643

ActifCommunicationsVLEO
NORAD 63192·PAYLOAD·🇺🇸 United States

Lancé Mar 13, 2025 depuis Cape Canaveral Space Force Station

Loading…

Prochains Passages (prochaines 24 heures)

TLE

FraisSource: CelesTrak SupGP

Époque: Sep 15, 2026, 03:57 UTC

1 63192C 25048K   26258.16506944 -.00039700  00000+0 -30814-3 0  2585
2 63192  43.0005 257.8102 0001496 254.9799 356.3631 15.70874126    14

Suivez STARLINK-11643 en temps réel avec AllMySat

Download on the App Store